EW2310 Weather Reports


Display with metric or nautical units.
time (UTC)temp
F
wind
direction
speed
MPH
gust
MPH
rain 1hr
in
rain 24hr
in
rain mn
in
humidity
%
barometer
mb
20260510201045 64 228 0.0 2.0 0.00 0.18 0.00 91 1010.7
20260510200545 64 222 0.0 3.0 0.00 0.18 0.00 90 1010.7
20260510200045 65 221 2.0 3.0 0.00 0.18 0.00 90 1010.7
20260510195545 65 248 0.0 0.0 0.00 0.18 0.00 90 1010.8
20260510195046 65 248 0.0 3.0 0.00 0.18 0.00 90 1010.7
20260510194546 65 248 0.0 1.0 0.00 0.18 0.00 90 1010.7
20260510194045 65 248 0.0 3.0 0.00 0.18 0.00 90 1010.6
20260510193545 65 248 0.0 1.0 0.00 0.18 0.00 91 1010.6
20260510193045 64 248 0.0 3.0 0.00 0.18 0.00 90 1010.5
20260510192549 65 248 2.0 3.0 0.00 0.18 0.00 90 1010.5
20260510192046 65 249 0.0 2.0 0.00 0.18 0.00 90 1010.4
20260510191545 65 249 0.0 2.0 0.00 0.18 0.00 91 1010.4
20260510191045 64 249 0.0 2.0 0.00 0.18 0.00 91 1010.3
20260510190545 65 246 0.0 3.0 0.00 0.18 0.00 90 1010.3
20260510190046 65 246 0.0 3.0 0.00 0.18 0.00 90 1010.2
20260510185546 64 244 0.0 3.0 0.00 0.18 0.00 91 1010.2
20260510185046 64 236 1.0 2.0 0.00 0.18 0.00 90 1010.1
20260510184545 64 232 0.0 4.0 0.00 0.18 0.00 90 1010.0
20260510184046 64 225 0.0 4.0 0.00 0.18 0.00 90 1010.0
20260510183546 64 206 1.0 5.0 0.00 0.18 0.00 90 1010.0
20260510183046 64 234 0.0 6.0 0.00 0.18 0.00 90 1009.9
20260510182545 65 223 0.0 4.0 0.00 0.18 0.00 90 1009.9
20260510182046 65 224 4.0 6.0 0.00 0.18 0.00 90 1009.9
20260510181545 65 257 0.0 8.0 0.00 0.18 0.00 91 1009.9
20260510181045 65 244 2.0 3.0 0.00 0.18 0.00 91 1009.9
20260510180549 64 215 0.0 4.0 0.00 0.18 0.00 91 1009.8
20260510180045 64 223 2.0 6.0 0.00 0.18 0.00 91 1009.8
20260510175545 64 232 1.0 6.0 0.00 0.18 0.00 91 1009.7
20260510175048 65 229 1.0 3.0 0.00 0.18 0.00 91 1009.7
20260510174545 65 215 0.0 2.0 0.00 0.18 0.00 91 1009.7
20260510174045 64 223 2.0 6.0 0.00 0.18 0.00 91 1009.6
20260510173545 64 198 3.0 7.0 0.00 0.18 0.00 91 1009.6
20260510173045 64 173 3.0 6.0 0.00 0.18 0.00 90 1009.4
20260510172545 65 166 3.0 7.0 0.00 0.18 0.00 90 1009.5
20260510172045 65 174 1.0 7.0 0.00 0.18 0.00 90 1009.5
20260510171546 65 165 5.0 9.0 0.00 0.18 0.00 90 1009.4
20260510171045 65 185 3.0 8.0 0.00 0.18 0.00 90 1009.3
20260510170545 65 166 3.0 6.0 0.00 0.18 0.00 90 1009.2
20260510170045 65 171 2.0 7.0 0.00 0.18 0.00 90 1009.2
20260510165545 65 177 3.0 9.0 0.00 0.18 0.00 90 1009.2
20260510165045 65 169 4.0 7.0 0.00 0.18 0.00 90 1009.2
20260510164545 65 196 5.0 9.0 0.00 0.18 0.00 90 1009.1
20260510164045 65 175 3.0 7.0 0.00 0.18 0.00 90 1009.2
20260510163548 65 167 6.0 8.0 0.00 0.18 0.00 90 1009.1
20260510163045 65 184 3.0 8.0 0.00 0.18 0.00 90 1009.2
20260510162545 65 163 5.0 8.0 0.00 0.18 0.00 90 1009.2
20260510162045 65 202 2.0 7.0 0.00 0.18 0.00 90 1009.2
20260510161545 65 188 4.0 9.0 0.00 0.18 0.00 90 1009.2
20260510161045 65 168 6.0 9.0 0.00 0.18 0.00 91 1009.1
20260510160545 65 169 4.0 9.0 0.00 0.18 0.00 91 1009.1
20260510160046 65 163 2.0 8.0 0.00 0.18 0.00 91 1009.1
20260510155548 65 163 7.0 9.0 0.00 0.18 0.00 91 1009.1
20260510155045 65 161 7.0 9.0 0.00 0.18 0.00 90 1009.3
20260510154545 65 180 4.0 9.0 0.00 0.18 0.00 91 1009.2
20260510154045 65 169 4.0 8.0 0.00 0.18 0.00 91 1009.2
20260510153545 65 181 4.0 9.0 0.00 0.18 0.00 91 1009.1
20260510153045 65 180 7.0 12.0 0.03 0.18 0.00 91 1009.2
20260510152548 65 178 4.0 11.0 0.03 0.18 0.00 91 1009.1
20260510152045 65 162 5.0 10.0 0.03 0.18 0.00 90 1009.1
20260510151545 65 162 5.0 9.0 0.03 0.18 0.00 91 1009.1
20260510151045 65 178 3.0 12.0 0.03 0.18 0.00 91 1009.1
20260510150545 65 165 10.0 15.0 0.03 0.18 0.00 90 1009.0
20260510150045 65 161 7.0 11.0 0.03 0.18 0.00 90 1009.2
20260510145545 65 168 6.0 12.0 0.03 0.18 0.00 90 1009.1
20260510145045 65 168 7.0 13.0 0.03 0.18 0.00 90 1009.1
20260510144545 65 160 6.0 12.0 0.03 0.18 0.00 89 1009.1
20260510144045 65 153 5.0 12.0 0.03 0.18 0.00 89 1009.1
20260510143545 65 193 6.0 14.0 0.02 0.18 0.00 87 1009.1
20260510143045 66 167 5.0 14.0 0.00 0.15 0.00 87 1009.2
20260510142545 66 158 11.0 14.0 0.00 0.15 0.00 87 1009.2
20260510142045 66 160 12.0 14.0 0.00 0.15 0.00 87 1009.1
20260510141545 66 126 7.0 16.0 0.00 0.15 0.00 86 1009.1
20260510141045 66 155 13.0 16.0 0.00 0.15 0.00 86 1009.1
20260510140545 67 159 10.0 16.0 0.00 0.15 0.00 85 1009.1
20260510140045 66 155 8.0 15.0 0.00 0.15 0.00 85 1009.1
20260510135545 66 148 6.0 18.0 0.00 0.15 0.00 84 1009.2
20260510135045 66 150 12.0 18.0 0.00 0.15 0.00 84 1009.2
20260510134548 66 146 11.0 21.0 0.00 0.15 0.00 84 1009.2
20260510134048 67 188 6.0 19.0 0.00 0.15 0.00 84 1009.1
20260510133545 67 157 9.0 22.0 0.00 0.15 0.00 84 1009.2
20260510133045 67 119 14.0 22.0 0.00 0.15 0.00 84 1009.2
20260510132545 67 161 13.0 19.0 0.00 0.15 0.00 83 1009.2
20260510132045 67 131 20.0 24.0 0.00 0.15 0.00 83 1009.3
20260510131545 67 148 8.0 20.0 0.00 0.15 0.00 84 1009.3
20260510131045 67 142 18.0 18.0 0.00 0.15 0.00 84 1009.4
20260510130548 67 153 8.0 21.0 0.00 0.15 0.00 84 1009.3
20260510130045 66 134 10.0 19.0 0.00 0.15 0.00 85 1009.4
20260510125545 66 121 12.0 19.0 0.00 0.15 0.00 85 1009.5
20260510125048 66 129 7.0 14.0 0.00 0.15 0.00 86 1009.5
20260510124545 65 175 12.0 15.0 0.00 0.15 0.00 87 1009.5
20260510124045 65 165 11.0 18.0 0.00 0.15 0.00 87 1009.6
20260510123545 65 136 15.0 16.0 0.00 0.15 0.00 88 1009.6
20260510123045 64 122 12.0 21.0 0.00 0.15 0.00 88 1009.7
20260510122545 64 113 9.0 16.0 0.00 0.15 0.00 88 1009.8
20260510122045 64 151 6.0 17.0 0.00 0.15 0.00 86 1009.9
20260510121545 65 140 10.0 16.0 0.00 0.15 0.00 86 1009.9
20260510121048 65 128 9.0 18.0 0.00 0.15 0.00 85 1009.8
20260510120546 65 132 15.0 23.0 0.00 0.15 0.00 83 1009.8
20260510120045 66 150 14.0 20.0 0.00 0.15 0.00 80 1009.8
20260510115545 67 155 10.0 25.0 0.00 0.15 0.00 77 1009.9
20260510115048 67 142 10.0 26.0 0.00 0.15 0.00 77 1009.8
20260510114545 68 167 19.0 26.0 0.00 0.15 0.00 76 1009.8
20260510114045 68 139 14.0 25.0 0.00 0.15 0.00 75 1009.8
20260510113545 68 144 11.0 20.0 0.00 0.15 0.00 75 1009.9
20260510113045 68 128 20.0 24.0 0.00 0.15 0.00 73 1010.0
20260510112545 68 176 15.0 24.0 0.00 0.15 0.00 73 1009.9
20260510112045 69 152 16.0 28.0 0.00 0.15 0.00 73 1009.6
20260510111548 68 161 17.0 27.0 0.00 0.15 0.00 73 1009.8
20260510111045 68 159 9.0 22.0 0.00 0.15 0.00 73 1009.9
20260510110545 68 148 15.0 26.0 0.00 0.15 0.00 73 1010.0
20260510110045 68 149 9.0 22.0 0.00 0.15 0.00 73 1010.2
20260510105545 68 154 16.0 26.0 0.00 0.15 0.00 72 1010.1
20260510105045 68 152 11.0 24.0 0.00 0.15 0.00 72 1010.0
20260510104545 68 173 11.0 31.0 0.00 0.15 0.00 71 1010.0
20260510104048 69 211 9.0 20.0 0.00 0.15 0.00 71 1009.9
20260510103545 69 140 7.0 23.0 0.00 0.15 0.00 71 1010.0
20260510103045 69 200 13.0 21.0 0.00 0.15 0.00 70 1010.0
20260510102545 69 134 10.0 20.0 0.00 0.15 0.00 70 1010.1
20260510102048 69 173 8.0 18.0 0.00 0.15 0.00 69 1010.2
20260510101545 69 146 13.0 25.0 0.00 0.15 0.00 68 1010.3
20260510101045 69 151 16.0 26.0 0.00 0.15 0.00 68 1010.3
20260510100548 70 148 14.0 19.0 0.00 0.15 0.00 68 1010.5
20260510100045 70 158 11.0 18.0 0.00 0.15 0.00 69 1010.1
20260510095545 70 146 11.0 25.0 0.00 0.15 0.00 68 1010.2
20260510095046 70 93 21.0 26.0 0.00 0.15 0.00 68 1010.2
20260510094546 70 177 20.0 28.0 0.00 0.15 0.00 68 1010.2
20260510094046 69 138 13.0 33.0 0.00 0.15 0.00 69 1010.1
20260510093545 69 144 12.0 20.0 0.00 0.15 0.00 71 1010.3
20260510093045 69 142 13.0 22.0 0.00 0.15 0.00 72 1010.5
20260510092545 68 135 9.0 18.0 0.00 0.15 0.00 72 1010.5
20260510092045 68 132 9.0 19.0 0.00 0.15 0.00 73 1010.5
20260510091548 67 153 11.0 22.0 0.00 0.15 0.00 73 1010.6
20260510091045 67 148 4.0 25.0 0.00 0.15 0.00 73 1010.6
20260510090545 67 102 15.0 22.0 0.00 0.15 0.00 74 1010.7
20260510090045 67 178 14.0 17.0 0.00 0.15 0.00 75 1010.8
20260510085545 67 165 11.0 14.0 0.00 0.15 0.00 77 1010.9
20260510085045 66 149 8.0 14.0 0.00 0.15 0.00 77 1011.0
20260510084545 66 139 10.0 12.0 0.00 0.15 0.00 79 1011.0
20260510084045 66 161 6.0 11.0 0.00 0.15 0.00 78 1011.1
20260510083548 65 146 6.0 11.0 0.00 0.15 0.00 78 1011.1
20260510083048 65 142 8.0 12.0 0.00 0.15 0.00 78 1011.0
20260510082545 65 156 6.0 12.0 0.00 0.15 0.00 78 1011.0
20260510082045 65 162 7.0 11.0 0.00 0.15 0.00 78 1010.9
20260510081545 65 144 9.0 12.0 0.00 0.15 0.00 79 1010.9
20260510081045 65 151 6.0 9.0 0.00 0.15 0.00 79 1011.0
20260510080545 65 133 7.0 9.0 0.00 0.15 0.00 79 1011.0
20260510080045 65 175 4.0 9.0 0.00 0.15 0.00 78 1011.0
20260510075545 65 121 5.0 10.0 0.00 0.15 0.00 77 1011.0
20260510075045 65 138 8.0 11.0 0.00 0.15 0.00 76 1010.9
20260510074545 65 147 9.0 12.0 0.00 0.15 0.00 76 1010.8
20260510074045 66 175 6.0 13.0 0.00 0.15 0.00 77 1010.9
20260510073545 66 173 5.0 11.0 0.00 0.15 0.00 76 1010.8
20260510073045 66 163 7.0 12.0 0.00 0.15 0.00 76 1010.8
20260510072545 66 135 9.0 12.0 0.00 0.15 0.00 76 1010.8
20260510072045 66 140 8.0 11.0 0.00 0.15 0.00 76 1010.8
20260510071545 66 153 5.0 16.0 0.00 0.15 0.00 76 1010.9
20260510071045 65 140 3.0 9.0 0.00 0.15 0.00 77 1010.8
20260510070545 65 151 4.0 9.0 0.00 0.15 0.00 79 1010.9
20260510070045 64 143 3.0 6.0 0.00 0.15 0.00 80 1010.9
20260510065545 64 121 3.0 5.0 0.00 0.15 0.00 82 1010.9
20260510065048 63 80 1.0 6.0 0.00 0.15 0.00 85 1010.9
20260510064545 62 321 1.0 3.0 0.00 0.15 0.00 86 1011.0
20260510064045 62 321 1.0 4.0 0.00 0.15 0.00 86 1011.0
20260510063545 62 317 2.0 5.0 0.00 0.15 0.00 86 1011.0
20260510063045 62 318 2.0 4.0 0.00 0.15 0.00 86 1011.0
20260510062545 62 138 1.0 2.0 0.00 0.15 0.00 86 1011.1
20260510062045 61 138 0.0 2.0 0.01 0.15 0.00 87 1011.1
20260510061548 61 138 1.0 4.0 0.03 0.15 0.00 87 1011.1
20260510061045 61 138 3.0 4.0 0.03 0.15 0.00 88 1011.1
20260510060545 61 106 1.0 13.0 0.03 0.15 0.00 88 1010.7
20260510060045 61 111 7.0 13.0 0.03 0.15 0.00 88 1010.3
20260510055545 60 131 4.0 9.0 0.03 0.15 0.00 89 1010.4
20260510055048 60 112 7.0 9.0 0.03 0.15 0.00 89 1010.9
20260510054545 60 54 1.0 2.0 0.03 0.15 0.00 89 1011.3
20260510054046 60 54 0.0 1.0 0.03 0.15 0.00 89 1011.3
20260510053545 60 54 0.0 7.0 0.02 0.14 0.00 89 1011.2
20260510053045 60 29 4.0 10.0 0.02 0.14 0.00 88 1011.3
20260510052545 60 59 3.0 7.0 0.02 0.14 0.00 88 1011.2
20260510052045 60 61 3.0 5.0 0.01 0.14 0.00 87 1011.7
20260510051548 60 78 2.0 9.0 0.00 0.12 0.00 87 1011.8
20260510051045 60 33 6.0 8.0 0.00 0.12 0.00 87 1011.8
20260510050545 60 348 2.0 7.0 0.00 0.12 0.00 87 1012.3
20260510050045 60 349 5.0 6.0 0.00 0.12 0.00 87 1012.3
20260510045545 60 355 6.0 8.0 0.00 0.12 0.00 87 1012.3
20260510045045 60 333 3.0 6.0 0.00 0.12 0.00 87 1012.2
20260510044545 60 34 3.0 8.0 0.00 0.12 0.00 87 1012.2
20260510044045 60 5 4.0 8.0 0.00 0.12 0.00 87 1012.2
20260510043545 60 18 1.0 5.0 0.00 0.12 0.00 87 1012.4
20260510043048 60 345 4.0 8.0 0.00 0.12 0.00 87 1012.3
20260510042548 60 331 4.0 8.0 0.00 0.12 0.00 86 1012.4
20260510042045 60 350 5.0 9.0 0.00 0.12 0.00 86 1012.3
20260510041545 61 337 6.0 9.0 0.00 0.12 0.00 86 1012.3
20260510041045 60 355 4.0 10.0 0.00 0.12 0.00 86 1012.3
20260510040545 60 0 9.0 10.0 0.00 0.12 0.00 87 1012.3
20260510040045 60 9 5.0 9.0 0.00 0.12 0.00 87 1012.4
20260510035545 60 14 4.0 9.0 0.00 0.12 0.00 87 1012.4
20260510035045 60 38 5.0 6.0 0.00 0.12 0.00 87 1012.4
20260510034548 60 319 4.0 10.0 0.00 0.12 0.00 88 1012.4
20260510034045 60 325 8.0 10.0 0.00 0.12 0.00 88 1012.3
20260510033545 60 340 4.0 9.0 0.00 0.12 0.00 88 1012.1
20260510033045 60 17 3.0 8.0 0.00 0.12 0.00 88 1012.1
20260510032545 60 75 4.0 9.0 0.00 0.12 0.00 88 1012.1
20260510032045 59 67 4.0 7.0 0.00 0.12 0.00 88 1012.3
20260510031545 59 63 3.0 7.0 0.00 0.12 0.00 88 1012.6
20260510031045 59 38 2.0 7.0 0.00 0.12 0.00 88 1012.7
20260510030548 59 49 1.0 6.0 0.01 0.12 0.00 88 1012.8
20260510030048 59 5 5.0 6.0 0.01 0.12 0.00 88 1012.8
20260510025545 59 52 2.0 5.0 0.02 0.12 0.00 88 1012.9
20260510025045 59 31 4.0 5.0 0.03 0.12 0.00 88 1013.1
20260510024545 59 349 2.0 5.0 0.04 0.12 0.00 88 1013.2
20260510024045 59 32 3.0 4.0 0.05 0.12 0.00 87 1013.3
20260510023545 59 5 4.0 3.0 0.08 0.12 0.00 88 1013.4
20260510023045 59 5 2.0 5.0 0.09 0.12 0.00 88 1013.4
20260510022545 59 5 4.0 4.0 0.09 0.12 0.00 87 1013.3
20260510022045 60 355 1.0 4.0 0.09 0.12 0.00 87 1013.3
20260510021545 59 169 1.0 2.0 0.09 0.11 0.00 87 1013.4
20260510021046 60 169 0.0 1.0 0.09 0.11 0.00 87 1013.5
20260510020545 60 169 0.0 5.0 0.08 0.11 0.00 87 1013.6
20260510020045 60 165 5.0 6.0 0.08 0.11 0.00 86 1013.6
20260510015548 61 140 3.0 3.0 0.07 0.10 0.00 85 1013.5
20260510015045 61 94 1.0 1.0 0.07 0.09 0.00 85 1013.5
20260510014545 61 94 0.0 2.0 0.05 0.07 0.00 85 1013.4
20260510014045 61 89 1.0 4.0 0.04 0.07 0.00 84 1013.4
20260510013545 61 87 4.0 6.0 0.01 0.03 0.00 84 1013.3
20260510013045 61 175 2.0 3.0 0.00 0.03 0.00 84 1013.5
20260510012545 61 175 0.0 4.0 0.00 0.03 0.00 84 1013.4
20260510012045 61 175 2.0 3.0 0.00 0.03 0.00 84 1013.1
20260510011545 61 176 0.0 5.0 0.00 0.02 0.00 85 1013.0
20260510011045 61 134 1.0 4.0 0.00 0.02 0.00 85 1012.7
20260510010545 61 96 0.0 9.0 0.00 0.02 0.00 85 1012.4
20260510010048 61 148 4.0 8.0 0.00 0.02 0.00 85 1012.4
20260510005548 61 163 4.0 9.0 0.00 0.02 0.00 85 1012.4
20260510005045 61 117 4.0 9.0 0.00 0.02 0.00 85 1012.3
20260510004545 61 170 2.0 10.0 0.00 0.02 0.00 85 1012.2
20260510004045 61 143 2.0 9.0 0.00 0.02 0.00 86 1012.3
20260510003545 61 177 4.0 10.0 0.00 0.02 0.00 85 1012.0
20260510003045 61 160 5.0 9.0 0.00 0.02 0.00 85 1012.1
20260510002545 61 85 9.0 10.0 0.00 0.02 0.00 86 1012.1
20260510002048 61 117 6.0 9.0 0.00 0.02 0.00 86 1012.4
20260510001545 61 113 7.0 7.0 0.00 0.02 0.00 86 1012.8
20260510001048 61 96 2.0 7.0 0.00 0.02 0.00 85 1013.2
20260510000548 62 101 2.0 6.0 0.00 0.02 0.00 84 1013.3
20260510000045 62 112 1.0 4.0 0.01 0.02 0.00 84 1013.5
20260509235545 62 99 2.0 4.0 0.02 0.02 0.00 83 1013.6
20260509235045 62 103 3.0 5.0 0.02 0.02 0.00 84 1013.7
20260509234545 62 198 2.0 3.0 0.02 0.02 0.00 84 1013.9
20260509234050 62 198 3.0 4.0 0.02 0.02 0.00 84 1014.1
20260509233545 63 198 2.0 3.0 0.02 0.02 0.00 83 1014.2
20260509233045 63 198 0.0 0.0 0.02 0.02 0.00 83 1014.3
20260509232545 63 198 0.0 2.0 0.01 0.01 0.00 83 1014.4
20260509232045 63 198 0.0 4.0 0.01 0.01 0.00 82 1014.5
20260509231545 63 329 0.0 3.0 0.01 0.01 0.00 82 1014.5
20260509231048 63 263 1.0 2.0 0.01 0.01 0.00 81 1014.5
20260509230545 63 259 0.0 4.0 0.01 0.01 0.00 81 1014.5
20260509230048 63 236 1.0 3.0 0.00 0.00 0.00 79 1014.9
20260509225545 63 237 0.0 3.0 0.00 0.00 0.00 79 1014.8
20260509225048 63 229 1.0 7.0 0.00 0.00 0.00 79 1014.9
20260509224548 63 244 1.0 3.0 0.00 0.00 0.00 79 1014.8
20260509224045 63 277 1.0 5.0 0.00 0.00 0.00 79 1014.5
20260509223545 63 248 5.0 8.0 0.00 0.00 0.00 79 1014.2
20260509223045 63 173 1.0 6.0 0.00 0.00 0.00 78 1013.6
20260509222545 63 155 2.0 8.0 0.00 0.00 0.00 77 1013.2
20260509222045 63 134 1.0 7.0 0.00 0.00 0.00 77 1012.8
20260509221545 63 150 3.0 6.0 0.00 0.00 0.00 76 1012.8
20260509221045 64 173 3.0 8.0 0.00 0.00 0.00 75 1012.7
20260509220545 64 105 4.0 7.0 0.00 0.00 0.00 75 1012.5
20260509220045 64 121 4.0 7.0 0.00 0.00 0.00 75 1012.8
20260509215545 64 127 3.0 3.0 0.00 0.00 0.00 75 1013.2
20260509215048 64 127 0.0 1.0 0.00 0.00 0.00 76 1013.3
20260509214545 64 127 0.0 2.0 0.00 0.00 0.00 75 1013.2
20260509214045 64 127 0.0 2.0 0.00 0.00 0.00 76 1013.1
20260509213545 64 127 1.0 2.0 0.00 0.00 0.00 76 1013.2
20260509213045 64 127 0.0 1.0 0.00 0.00 0.00 77 1013.1
20260509212545 64 127 0.0 0.0 0.00 0.00 0.00 77 1013.0
20260509212045 63 127 0.0 0.0 0.00 0.00 0.00 78 1013.0
20260509211545 63 127 0.0 0.0 0.00 0.00 0.00 78 1013.0
20260509211045 63 127 0.0 0.0 0.00 0.00 0.00 78 1012.9
20260509210545 64 127 0.0 1.0 0.00 0.00 0.00 78 1012.8
20260509210045 64 127 0.0 1.0 0.00 0.00 0.00 78 1012.7
20260509205545 64 127 0.0 1.0 0.00 0.00 0.00 78 1012.8
20260509205045 64 127 0.0 3.0 0.00 0.00 0.00 78 1012.6
20260509204545 64 123 1.0 6.0 0.00 0.00 0.00 78 1012.4
20260509204045 63 109 2.0 7.0 0.00 0.00 0.00 79 1012.5
20260509203545 63 139 4.0 6.0 0.00 0.00 0.00 79 1012.6
20260509203048 64 155 4.0 8.0 0.00 0.00 0.00 78 1012.6
20260509202545 64 153 3.0 10.0 0.00 0.00 0.00 78 1012.2
20260509202045 64 114 3.0 9.0 0.00 0.00 0.00 77 1012.3
20260509201545 64 90 3.0 8.0 0.00 0.00 0.00 76 1012.2